This demonstration page uses our WeatherBlox Daily Observations layout. Learn more.

Left ArrowRight Arrow

Hourly Observations for March 9, 2015

Temp ( °F °C ) Dew Point ( °F °C ) Humidity (%) Winds ( mph kmh ) Pressure ( in mb ) Visibility ( mi km ) Precip ( " mm )
12:16 am 00:16 Clear 32 undefined 25 -4 75 75 N 3 6 30.21 1023 10 16 N/A
12:36 am 00:36 Clear 32 undefined 28 -2 87 87 N N/A 30.21 1023 10 16 N/A
12:55 am 00:55 Clear 32 undefined 30 -1 93 93 N N/A 30.21 1023 10 16 N/A
1:16 am 01:16 Clear 32 undefined N/A N/A N N/A 30.21 1023 10 16 N/A
1:35 am 01:35 Clear 32 undefined N/A N/A N N/A 30.21 1023 10 16 N/A
1:55 am 01:55 Clear 30 -1 N/A N/A N N/A 30.21 1023 10 16 N/A
2:16 am 02:16 Clear 32 undefined N/A N/A N N/A 30.21 1023 10 16 N/A
2:35 am 02:35 Clear 30 -1 N/A N/A N N/A 30.21 1023 10 16 N/A
2:55 am 02:55 Clear 30 -1 N/A N/A N N/A 30.21 1023 10 16 N/A
3:16 am 03:16 Clear 30 -1 N/A N/A S 8 13 30.21 1023 10 16 N/A
3:35 am 03:35 Clear 32 undefined N/A N/A S 3 6 30.21 1023 10 16 N/A
3:56 am 03:56 Clear 32 undefined 32 undefined 100 100 N N/A 30.21 1023 10 16 N/A
4:16 am 04:16 Clear 32 undefined N/A N/A SSW 3 6 30.21 1023 10 16 N/A
4:35 am 04:35 Clear 32 undefined N/A N/A SSW 5 7 30.21 1023 10 16 N/A
4:56 am 04:56 Clear 34 1 27 -3 75 75 N N/A 30.21 1023 10 16 N/A
5:16 am 05:16 Clear 32 undefined 25 -4 75 75 SSW 3 6 30.21 1023 10 16 N/A
5:35 am 05:35 Clear 32 undefined 28 -2 87 87 N N/A 30.21 1023 10 16 N/A
5:56 am 05:56 Clear 32 undefined 28 -2 87 87 N N/A 30.21 1023 10 16 N/A
6:16 am 06:16 Clear 30 -1 30 -1 100 100 N N/A 30.21 1023 10 16 N/A
6:35 am 06:35 Clear 30 -1 28 -2 93 93 S 3 6 30.21 1023 7 11 N/A
6:56 am 06:56 Clear 30 -1 N/A N/A N N/A 30.24 1024 7 11 N/A
7:16 am 07:16 Clear 28 -2 N/A N/A N N/A 30.24 1024 7 11 N/A
7:35 am 07:35 Clear 28 -2 N/A N/A N N/A 30.24 1024 7 11 N/A
7:56 am 07:56 Clear 28 -2 N/A N/A N N/A 30.24 1024 7 11 N/A
8:16 am 08:16 Sunny 28 -2 N/A N/A N N/A 30.24 1024 5 8 N/A
8:35 am 08:35 Sunny 28 -2 N/A N/A S 3 6 30.24 1024 4 6 N/A
8:56 am 08:56 Sunny 30 -1 N/A N/A S 3 6 30.24 1024 5 8 N/A
9:16 am 09:16 Sunny 32 undefined N/A N/A N N/A 30.24 1024 5 8 N/A
9:35 am 09:35 Sunny 34 1 N/A N/A N N/A 30.24 1024 5 8 N/A
9:56 am 09:56 Sunny 36 2 36 2 100 100 N N/A 30.24 1024 7 11 N/A
10:15 am 10:15 Sunny 39 4 28 -2 65 65 N N/A 30.24 1024 10 16 N/A
10:35 am 10:35 Sunny 39 4 28 -2 65 65 S 5 7 30.27 1025 10 16 N/A
10:56 am 10:56 Sunny 41 5 28 -2 61 61 S 3 6 30.21 1023 10 16 N/A
11:15 am 11:15 Sunny 41 5 28 -2 61 61 S 5 7 30.21 1023 10 16 N/A
11:36 am 11:36 Sunny 43 6 30 -1 61 61 SSW 6 9 30.21 1023 10 16 N/A
11:56 am 11:56 Sunny 43 6 30 -1 61 61 S 7 11 30.21 1023 10 16 N/A
12:15 pm 12:15 Sunny 43 6 30 -1 61 61 S 7 11 30.21 1023 10 16 N/A
12:36 pm 12:36 Sunny 45 7 32 undefined 61 61 S 8 13 30.21 1023 10 16 N/A
12:56 pm 12:56 Sunny 45 7 32 undefined 61 61 S 8 13 30.21 1023 10 16 N/A
1:15 pm 13:15 Partly Cloudy 45 7 32 undefined 61 61 SSE 7 11 30.21 1023 10 16 N/A
1:36 pm 13:36 Mostly Cloudy 45 7 32 undefined 61 61 S 8 13 30.21 1023 10 16 N/A
1:56 pm 13:56 Cloudy 45 7 32 undefined 61 61 S 8 13 30.21 1023 10 16 N/A
2:15 pm 14:15 Cloudy 45 7 32 undefined 61 61 S 8 13 30.21 1023 10 16 N/A
2:36 pm 14:36 Cloudy 45 7 32 undefined 61 61 S 7 11 30.21 1023 10 16 N/A
3:15 pm 15:15 Cloudy 45 7 32 undefined 61 61 S 7 11 30.21 1023 10 16 N/A
3:36 pm 15:36 Cloudy 45 7 32 undefined 61 61 S 8 13 30.21 1023 10 16 N/A
3:56 pm 15:56 Cloudy 45 7 32 undefined 61 61 S 8 13 30.21 1023 10 16 N/A
4:15 pm 16:15 Cloudy 45 7 34 1 66 66 S 6 9 30.21 1023 10 16 N/A
4:36 pm 16:36 Cloudy 45 7 34 1 66 66 S 6 9 30.21 1023 10 16 N/A
4:55 pm 16:55 Cloudy 45 7 34 1 66 66 S 8 13 30.21 1023 10 16 N/A
5:15 pm 17:15 Cloudy 43 6 34 1 71 71 S 5 7 30.21 1023 10 16 N/A
5:36 pm 17:36 Cloudy 43 6 36 2 76 76 S 6 9 30.21 1023 10 16 N/A
5:55 pm 17:55 Cloudy 45 7 34 1 66 66 SSW 3 6 30.21 1023 10 16 N/A
6:16 pm 18:16 Cloudy 43 6 36 2 76 76 SE 5 7 30.21 1023 10 16 N/A
6:36 pm 18:36 Cloudy 43 6 36 2 76 76 ESE 3 6 30.21 1023 7 11 N/A
6:55 pm 18:55 Cloudy 41 5 39 4 93 93 ESE 5 7 30.21 1023 7 11 N/A
7:16 pm 19:16 Cloudy 41 5 41 5 100 100 E 5 7 30.21 1023 7 11 N/A
7:36 pm 19:36 Cloudy 39 4 39 4 100 100 E 5 7 30.24 1024 7 11 N/A
7:55 pm 19:55 Cloudy 39 4 N/A N/A E 3 6 30.24 1024 7 11 N/A
8:16 pm 20:16 Cloudy 39 4 N/A N/A E 5 7 30.24 1024 7 11 N/A
8:36 pm 20:36 Cloudy 39 4 N/A N/A ESE 5 7 30.24 1024 7 11 N/A
8:55 pm 20:55 Cloudy 39 4 N/A N/A ESE 6 9 30.24 1024 7 11 N/A
9:16 pm 21:16 Cloudy 39 4 N/A N/A ESE 6 9 30.24 1024 7 11 N/A
9:36 pm 21:36 Cloudy 39 4 N/A N/A ESE 3 6 30.24 1024 7 11 N/A
9:55 pm 21:55 Cloudy 39 4 N/A N/A ESE 5 7 30.24 1024 7 11 N/A
10:16 pm 22:16 Cloudy 39 4 N/A N/A ESE 3 6 30.24 1024 7 11 N/A
10:36 pm 22:36 Cloudy 39 4 N/A N/A ESE 3 6 30.24 1024 5 8 N/A
10:55 pm 22:55 Cloudy 37 3 N/A N/A N N/A 30.24 1024 5 8 N/A
11:16 pm 23:16 Mostly Cloudy 37 3 N/A N/A ESE 5 7 30.24 1024 5 8 N/A
11:36 pm 23:36 Mostly Cloudy 39 4 N/A N/A SE 5 7 30.21 1023 5 8 N/A
11:55 pm 23:55 Cloudy 39 4 N/A N/A SSE 3 6 30.21 1023 5 8 N/A

Powered by AerisWeather